Weather in Krasnopol'ye

Russia / Volgograd Oblast     50°29′58″N   41°27′56″E
temp.,
°C
wind,
m/s
gust,
m/s
humid.,
%
clouds,
%
prec.,
mm/h
press.,
hPa
HPBL,
m
7 march, sun
sun700:00−6nw6107996 0.0 1018710
03:00−6wnw597648 0.0 1019694
06:00−7w48810 0.0 1019416
09:00−4wsw69723 0.0 1019975
12:00−1wsw8116388 0.1 10171307
15:000wsw8135094 0.1 10131244
18:00−1sw91554100 0.0 10111092
21:00−2sw111960100 0.0 10091154
8 march, mon
mon800:00−2wsw101780100 0.0 10071041
03:00−1wsw91586100 0.1 1007968
06:00−2wsw81493100 0.6 1007752
09:00−1wsw9148699 0.7 1007819
12:000wsw91382100 0.2 10061079
15:00+1wsw91271100 0.4 10061291
18:000w5993100 0.9 1006646
21:00−2wnw388696 1.3 1008494
9 march, tue
tue900:00−4nw358496 0.0 1009364
03:00−5wnw368982 0.0 1010341
06:00−4wnw479096 0.3 1011580
09:00−4wnw468493 0.4 1013672
12:00−4nw4572100 0.1 1014860
15:00−4nnw5667100 0.2 10151057
18:00−5nnw4675100 0.0 1015748
21:00−6nw368391 0.1 1018715
10 march, wed
wed1000:00−8nnw5786100 0.1 1019620
03:00−10nnw578190 0.1 1021572
06:00−11nnw478262 0.0 1022544
09:00−11nw477758 0.0 1024646
12:00−10nnw566797 0.0 1025833
15:00−10nnw565853 0.0 1025786
18:00−11nnw466340 0.0 1025556
21:00−13n356836 0.0 1027374
11 march, thu
thu1100:00−14nne347318 0.0 1028307
03:00−15nne34739 0.0 1029262
06:00−16ne34740 0.0 1030246
09:00−15e23630 0.0 1031319
12:00−11e214539 0.0 1032568
15:00−9e113832 0.0 1031647
18:00−9ese11410 0.0 1031453
21:00−10se35520 0.0 1032295